Hourly Data Report for November 24, 2005

TORONTO CITY
ONTARIO

43°40'00.000" N
79°24'00.000" W
112.50 m
6158355
71508
XTO

Download Data

Hourly Data (November 2005)
Hourly Data Report for November 24, 2005
TIME
LST
Temp Definition
°C
Dew Point Definition
°C
Rel Hum Definition
%
Precip. Amount Definition
mm

Wind Dir Definition
10's deg

Wind Spd Definition
km/h
Visibility Definition
km
Stn Press Definition
kPa
Hmdx Definition


Wind Chill Definition


Weather Definition


00:00 -0.7 -1.2 96   LegendMM LegendMM   97.35     LegendNANA
01:00 -0.2 -0.7 96   LegendMM LegendMM   97.19     LegendNANA
02:00 0.1 -0.3 97   LegendMM LegendMM   97.04     LegendNANA
03:00 0.6 0.3 98   LegendMM LegendMM   96.91     LegendNANA
04:00 0.6 0.3 98   LegendMM LegendMM   96.79     LegendNANA
05:00 1.2 1.0 99   LegendMM LegendMM   96.73     LegendNANA
06:00 -0.4 -3.6 79   LegendMM LegendMM   96.85     LegendNANA
07:00 -1.8 -5.2 78   LegendMM LegendMM   97.02     LegendNANA
08:00 -3.2 -8.7 66   LegendMM LegendMM   97.20     LegendNANA
09:00 -4.1 -10.1 63   LegendMM LegendMM   97.34     LegendNANA
10:00 -4.2 -10.6 61   LegendMM LegendMM   97.49     LegendNANA
11:00 -4.1 -9.9 64   LegendMM LegendMM   97.66     LegendNANA
12:00 -5.6 -8.5 80   LegendMM LegendMM   97.77     LegendNANA
13:00 -5.6 -10.8 67   LegendMM LegendMM   97.94     LegendNANA
14:00 -6.7 -11.6 68   LegendMM LegendMM   98.12     LegendNANA
15:00 -6.7 -13.9 57   LegendMM LegendMM   98.29     LegendNANA
16:00 -7.1 -11.5 71   LegendMM LegendMM   98.42     LegendNANA
17:00 -7.5 -11.4 74   LegendMM LegendMM   98.53     LegendNANA
18:00 -8.1 -9.2 92   LegendMM LegendMM   98.60     LegendNANA
19:00 -8.6 -9.7 92   LegendMM LegendMM   98.65     LegendNANA
20:00 -8.3 -11.3 79   LegendMM LegendMM   98.66     LegendNANA
21:00 -8.4 -11.7 77   LegendMM LegendMM   98.67     LegendNANA
22:00 -9.0 -10.8 87   LegendMM LegendMM   98.68     LegendNANA
23:00 -8.7 -10.0 90   LegendMM LegendMM   98.80     LegendNANA

Notes on Data Quality.

Legend

  • E = Estimated
  • M = Missing
  • NA = Not Available*
  • [empty] = Indicates an unobserved value
Date modified: